Time,TemperatureF,DewpointF,PressureIn,WindDirection,WindDirectionDegrees,WindSpeedMPH,WindSpeedGustMPH,Humidity,HourlyPrecipIn,Conditions,Clouds,dailyrainin,SoftwareType,DateUTC
2013-05-07 00:00:00,57.0,53.5,29.86,North,359,0.0,0.0,88,0.00,,---,0.44,VWS V14.01,2013-05-07 04:00:00,
2013-05-07 00:01:00,57.0,53.5,29.86,North,359,0.0,0.0,88,0.00,,---,0.44,VWS V14.01,2013-05-07 04:01:00,
2013-05-07 00:06:00,56.9,53.4,29.85,North,359,0.0,0.0,88,0.00,,---,0.00,VWS V14.01,2013-05-07 04:06:00,
2013-05-07 00:11:00,56.9,53.4,29.85,North,359,0.0,0.0,88,0.00,,---,0.00,VWS V14.01,2013-05-07 04:11:00,
2013-05-07 00:16:00,56.7,53.2,29.85,North,359,0.0,0.0,88,0.00,,---,0.00,VWS V14.01,2013-05-07 04:16:00,
2013-05-07 00:21:00,56.7,53.2,29.85,North,359,0.0,0.0,88,0.00,,---,0.00,VWS V14.01,2013-05-07 04:21:00,
2013-05-07 00:26:00,56.6,53.1,29.85,North,359,0.0,0.0,88,0.00,,---,0.00,VWS V14.01,2013-05-07 04:26:00,
2013-05-07 00:31:00,56.5,53.0,29.85,North,359,0.0,0.0,88,0.00,,---,0.00,VWS V14.01,2013-05-07 04:31:00,
2013-05-07 00:36:00,56.5,53.0,29.85,North,359,0.0,0.0,88,0.00,,---,0.00,VWS V14.01,2013-05-07 04:36:00,
2013-05-07 00:41:00,56.3,52.8,29.85,North,359,0.0,0.0,88,0.00,,---,0.00,VWS V14.01,2013-05-07 04:41:00,
2013-05-07 00:46:00,56.2,53.0,29.85,North,359,0.0,0.0,89,0.00,,---,0.00,VWS V14.01,2013-05-07 04:46:00,
2013-05-07 00:51:00,56.0,52.8,29.85,North,359,0.0,0.0,89,0.00,,---,0.00,VWS V14.01,2013-05-07 04:51:00,
2013-05-07 00:56:00,55.9,52.7,29.85,North,359,0.0,0.0,89,0.00,,---,0.00,VWS V14.01,2013-05-07 04:56:00,
2013-05-07 01:01:00,55.7,52.5,29.84,North,359,0.0,0.0,89,0.00,,---,0.00,VWS V14.01,2013-05-07 05:01:00,
2013-05-07 01:06:00,55.7,52.5,29.84,North,359,0.0,0.0,89,0.00,,---,0.00,VWS V14.01,2013-05-07 05:06:00,
2013-05-07 01:11:00,55.6,52.4,29.85,North,359,0.0,1.0,89,0.00,,---,0.00,VWS V14.01,2013-05-07 05:11:00,
2013-05-07 01:16:00,55.4,52.2,29.85,North,359,0.0,0.0,89,0.00,,---,0.00,VWS V14.01,2013-05-07 05:16:00,
2013-05-07 01:21:00,55.3,52.1,29.85,North,359,0.0,1.0,89,0.00,,---,0.00,VWS V14.01,2013-05-07 05:21:00,
2013-05-07 01:26:00,55.1,51.9,29.85,North,359,0.0,1.0,89,0.00,,---,0.00,VWS V14.01,2013-05-07 05:26:00,
2013-05-07 01:31:00,55.1,51.9,29.85,North,359,0.0,0.0,89,0.00,,---,0.00,VWS V14.01,2013-05-07 05:31:00,
2013-05-07 01:36:00,55.0,51.8,29.85,North,359,0.0,1.0,89,0.00,,---,0.00,VWS V14.01,2013-05-07 05:36:00,
2013-05-07 01:41:00,54.8,51.9,29.86,North,359,0.0,1.0,90,0.00,,---,0.00,VWS V14.01,2013-05-07 05:41:00,
2013-05-07 01:46:00,54.8,51.9,29.86,North,359,0.0,0.0,90,0.00,,---,0.00,VWS V14.01,2013-05-07 05:46:00,
2013-05-07 01:51:00,54.8,51.9,29.86,North,359,0.0,0.0,90,0.00,,---,0.00,VWS V14.01,2013-05-07 05:51:00,
2013-05-07 01:56:00,54.8,51.9,29.86,North,359,0.0,0.0,90,0.00,,---,0.00,VWS V14.01,2013-05-07 05:56:00,
2013-05-07 02:01:00,54.8,52.2,29.86,North,359,0.0,0.0,91,0.00,,---,0.00,VWS V14.01,2013-05-07 06:01:00,
2013-05-07 02:06:00,54.8,52.2,29.85,North,359,0.0,0.0,91,0.00,,---,0.00,VWS V14.01,2013-05-07 06:06:00,
2013-05-07 02:11:00,55.0,52.4,29.85,North,359,0.0,0.0,91,0.00,,---,0.00,VWS V14.01,2013-05-07 06:11:00,
2013-05-07 02:16:00,55.0,52.4,29.85,North,359,0.0,0.0,91,0.00,,---,0.00,VWS V14.01,2013-05-07 06:16:00,
2013-05-07 02:21:00,55.1,52.8,29.85,North,359,0.0,1.0,92,0.00,,---,0.00,VWS V14.01,2013-05-07 06:21:00,
2013-05-07 02:26:00,55.1,52.8,29.85,North,359,0.0,2.0,92,0.00,,---,0.00,VWS V14.01,2013-05-07 06:26:00,
2013-05-07 02:31:00,55.1,52.8,29.85,North,359,0.0,0.0,92,0.00,,---,0.00,VWS V14.01,2013-05-07 06:31:00,
2013-05-07 02:36:00,55.1,52.8,29.85,North,359,0.0,0.0,92,0.00,,---,0.00,VWS V14.01,2013-05-07 06:36:00,
2013-05-07 02:41:00,55.1,52.8,29.85,North,359,0.0,0.0,92,0.00,,---,0.00,VWS V14.01,2013-05-07 06:41:00,
2013-05-07 02:46:00,55.1,52.8,29.84,North,359,0.0,0.0,92,0.00,,---,0.00,VWS V14.01,2013-05-07 06:46:00,
2013-05-07 02:51:00,55.1,52.8,29.84,North,359,0.0,0.0,92,0.00,,---,0.00,VWS V14.01,2013-05-07 06:51:00,
2013-05-07 02:56:00,55.1,52.8,29.84,North,359,0.0,0.0,92,0.00,,---,0.00,VWS V14.01,2013-05-07 06:56:00,
2013-05-07 03:01:00,55.1,52.8,29.84,North,359,0.0,0.0,92,0.00,,---,0.00,VWS V14.01,2013-05-07 07:01:00,
2013-05-07 03:06:00,55.1,52.8,29.84,North,359,0.0,0.0,92,0.00,,---,0.00,VWS V14.01,2013-05-07 07:06:00,
2013-05-07 03:11:00,55.1,52.8,29.84,North,359,0.0,0.0,92,0.00,,---,0.00,VWS V14.01,2013-05-07 07:11:00,
2013-05-07 03:16:00,55.1,52.8,29.83,North,359,0.0,0.0,92,0.00,,---,0.00,VWS V14.01,2013-05-07 07:16:00,
2013-05-07 03:21:00,55.3,53.0,29.83,North,359,0.0,2.0,92,0.00,,---,0.00,VWS V14.01,2013-05-07 07:21:00,
2013-05-07 03:26:00,55.3,53.3,29.83,North,359,0.0,2.0,93,0.00,,---,0.00,VWS V14.01,2013-05-07 07:26:00,
2013-05-07 03:31:00,55.3,53.3,29.83,North,359,1.0,1.0,93,0.00,,---,0.00,VWS V14.01,2013-05-07 07:31:00,
2013-05-07 03:36:00,55.3,53.3,29.83,North,359,0.0,3.0,93,0.00,,---,0.00,VWS V14.01,2013-05-07 07:36:00,
2013-05-07 03:41:00,55.1,53.1,29.83,North,359,0.0,3.0,93,0.00,,---,0.00,VWS V14.01,2013-05-07 07:41:00,
2013-05-07 03:46:00,55.1,53.1,29.83,North,359,0.0,0.0,93,0.00,,---,0.00,VWS V14.01,2013-05-07 07:46:00,
2013-05-07 03:51:00,55.1,53.1,29.83,North,359,0.0,1.0,93,0.00,,---,0.00,VWS V14.01,2013-05-07 07:51:00,
2013-05-07 03:56:00,55.1,53.1,29.83,North,359,1.0,3.0,93,0.00,,---,0.00,VWS V14.01,2013-05-07 07:56:00,
2013-05-07 04:01:00,55.1,53.1,29.83,North,359,0.0,0.0,93,0.00,,---,0.00,VWS V14.01,2013-05-07 08:01:00,
2013-05-07 04:06:00,55.0,53.0,29.83,North,359,0.0,2.0,93,0.00,,---,0.00,VWS V14.01,2013-05-07 08:06:00,
2013-05-07 04:11:00,55.0,53.0,29.83,North,359,0.0,2.0,93,0.00,,---,0.00,VWS V14.01,2013-05-07 08:11:00,
2013-05-07 04:16:00,55.0,53.0,29.83,North,359,0.0,0.0,93,0.00,,---,0.00,VWS V14.01,2013-05-07 08:16:00,
2013-05-07 04:21:00,54.8,52.8,29.83,North,359,0.0,0.0,93,0.00,,---,0.00,VWS V14.01,2013-05-07 08:21:00,
2013-05-07 04:26:00,54.8,52.8,29.83,North,359,0.0,0.0,93,0.00,,---,0.00,VWS V14.01,2013-05-07 08:26:00,
2013-05-07 04:31:00,54.8,52.8,29.83,North,359,0.0,0.0,93,0.00,,---,0.00,VWS V14.01,2013-05-07 08:31:00,
2013-05-07 04:36:00,54.8,52.8,29.83,North,359,0.0,0.0,93,0.00,,---,0.00,VWS V14.01,2013-05-07 08:36:00,
2013-05-07 04:41:00,54.7,52.7,29.83,North,359,0.0,0.0,93,0.00,,---,0.00,VWS V14.01,2013-05-07 08:41:00,
2013-05-07 04:46:00,54.7,52.7,29.83,North,359,0.0,0.0,93,0.00,,---,0.00,VWS V14.01,2013-05-07 08:46:00,
2013-05-07 04:51:00,54.7,52.7,29.83,North,359,0.0,1.0,93,0.00,,---,0.00,VWS V14.01,2013-05-07 08:51:00,
2013-05-07 04:56:00,54.5,52.5,29.83,North,359,0.0,1.0,93,0.00,,---,0.00,VWS V14.01,2013-05-07 08:56:00,
2013-05-07 05:01:00,54.5,52.5,29.83,North,359,0.0,0.0,93,0.00,,---,0.00,VWS V14.01,2013-05-07 09:01:00,
2013-05-07 05:06:00,54.4,52.4,29.83,North,359,0.0,0.0,93,0.00,,---,0.00,VWS V14.01,2013-05-07 09:06:00,
2013-05-07 05:11:00,54.4,52.4,29.83,North,359,0.0,0.0,93,0.00,,---,0.00,VWS V14.01,2013-05-07 09:11:00,
2013-05-07 05:16:00,54.2,52.2,29.83,North,359,0.0,0.0,93,0.00,,---,0.00,VWS V14.01,2013-05-07 09:16:00,
2013-05-07 05:21:00,54.2,52.2,29.83,North,359,0.0,0.0,93,0.00,,---,0.00,VWS V14.01,2013-05-07 09:21:00,
2013-05-07 05:26:00,54.1,52.1,29.83,North,359,0.0,0.0,93,0.00,,---,0.00,VWS V14.01,2013-05-07 09:26:00,
2013-05-07 05:31:00,53.9,51.9,29.83,North,359,0.0,0.0,93,0.00,,---,0.00,VWS V14.01,2013-05-07 09:31:00,
2013-05-07 05:36:00,53.6,51.6,29.83,North,359,0.0,0.0,93,0.00,,---,0.00,VWS V14.01,2013-05-07 09:36:00,
2013-05-07 05:41:00,53.6,51.6,29.83,North,359,0.0,0.0,93,0.00,,---,0.00,VWS V14.01,2013-05-07 09:41:00,
2013-05-07 05:46:00,53.5,51.5,29.83,North,359,0.0,0.0,93,0.00,,---,0.00,VWS V14.01,2013-05-07 09:46:00,
2013-05-07 05:51:00,53.5,51.5,29.83,North,359,0.0,0.0,93,0.00,,---,0.00,VWS V14.01,2013-05-07 09:51:00,
2013-05-07 05:56:00,53.3,51.3,29.83,North,359,0.0,0.0,93,0.00,,---,0.00,VWS V14.01,2013-05-07 09:56:00,
2013-05-07 06:01:00,53.3,51.3,29.83,North,359,0.0,0.0,93,0.00,,---,0.00,VWS V14.01,2013-05-07 10:01:00,
2013-05-07 06:06:00,53.2,51.2,29.84,North,359,0.0,0.0,93,0.00,,---,0.00,VWS V14.01,2013-05-07 10:06:00,
2013-05-07 06:11:00,53.2,51.2,29.83,North,359,0.0,0.0,93,0.00,,---,0.00,VWS V14.01,2013-05-07 10:11:00,
2013-05-07 06:16:00,53.1,51.1,29.83,North,359,0.0,0.0,93,0.00,,---,0.00,VWS V14.01,2013-05-07 10:16:00,
2013-05-07 06:21:00,53.1,51.1,29.84,North,359,0.0,0.0,93,0.00,,---,0.00,VWS V14.01,2013-05-07 10:21:00,
2013-05-07 06:26:00,53.1,51.1,29.83,North,359,0.0,0.0,93,0.00,,---,0.00,VWS V14.01,2013-05-07 10:26:00,
2013-05-07 06:31:00,53.1,51.1,29.84,North,359,0.0,0.0,93,0.00,,---,0.00,VWS V14.01,2013-05-07 10:31:00,
2013-05-07 06:36:00,52.9,50.9,29.84,North,359,0.0,0.0,93,0.00,,---,0.00,VWS V14.01,2013-05-07 10:36:00,
2013-05-07 06:41:00,52.9,50.9,29.84,North,359,0.0,0.0,93,0.00,,---,0.00,VWS V14.01,2013-05-07 10:41:00,
2013-05-07 06:46:00,52.9,50.9,29.84,North,359,0.0,0.0,93,0.00,,---,0.00,VWS V14.01,2013-05-07 10:46:00,
2013-05-07 06:51:00,52.9,50.9,29.84,North,359,0.0,0.0,93,0.00,,---,0.00,VWS V14.01,2013-05-07 10:51:00,
2013-05-07 06:56:00,52.9,51.2,29.84,North,359,0.0,0.0,94,0.00,,---,0.00,VWS V14.01,2013-05-07 10:56:00,
2013-05-07 07:01:00,52.9,51.2,29.84,North,359,0.0,0.0,94,0.00,,---,0.00,VWS V14.01,2013-05-07 11:01:00,
2013-05-07 07:06:00,52.9,51.2,29.85,North,359,0.0,0.0,94,0.00,,---,0.00,VWS V14.01,2013-05-07 11:06:00,
2013-05-07 07:11:00,52.9,51.2,29.85,North,359,0.0,0.0,94,0.00,,---,0.00,VWS V14.01,2013-05-07 11:11:00,
2013-05-07 07:16:00,52.9,51.2,29.85,North,359,0.0,0.0,94,0.00,,---,0.00,VWS V14.01,2013-05-07 11:16:00,
2013-05-07 07:21:00,52.9,51.2,29.85,North,359,0.0,0.0,94,0.00,,---,0.00,VWS V14.01,2013-05-07 11:21:00,
2013-05-07 07:26:00,53.1,51.4,29.86,North,359,0.0,0.0,94,0.00,,---,0.00,VWS V14.01,2013-05-07 11:26:00,
2013-05-07 07:31:00,53.1,51.4,29.86,North,359,0.0,0.0,94,0.00,,---,0.00,VWS V14.01,2013-05-07 11:31:00,
2013-05-07 07:36:00,53.2,51.5,29.86,North,359,0.0,0.0,94,0.00,,---,0.00,VWS V14.01,2013-05-07 11:36:00,
2013-05-07 07:41:00,53.3,51.6,29.86,North,359,0.0,0.0,94,0.00,,---,0.00,VWS V14.01,2013-05-07 11:41:00,
2013-05-07 07:46:00,53.5,51.8,29.85,North,359,0.0,0.0,94,0.00,,---,0.00,VWS V14.01,2013-05-07 11:46:00,
2013-05-07 07:51:00,53.6,51.9,29.85,North,359,0.0,0.0,94,0.00,,---,0.00,VWS V14.01,2013-05-07 11:51:00,
2013-05-07 07:56:00,53.9,52.2,29.85,North,359,0.0,0.0,94,0.00,,---,0.00,VWS V14.01,2013-05-07 11:56:00,
2013-05-07 08:01:00,53.9,52.2,29.86,North,359,0.0,1.0,94,0.00,,---,0.00,VWS V14.01,2013-05-07 12:01:00,
2013-05-07 08:06:00,54.1,52.4,29.85,North,359,0.0,1.0,94,0.00,,---,0.00,VWS V14.01,2013-05-07 12:06:00,
2013-05-07 08:11:00,54.2,52.5,29.86,North,359,0.0,2.0,94,0.00,,---,0.00,VWS V14.01,2013-05-07 12:11:00,
2013-05-07 08:16:00,54.2,52.5,29.85,North,359,0.0,0.0,94,0.00,,---,0.00,VWS V14.01,2013-05-07 12:16:00,
2013-05-07 08:21:00,54.4,52.7,29.86,North,359,0.0,0.0,94,0.00,,---,0.00,VWS V14.01,2013-05-07 12:21:00,
2013-05-07 08:26:00,54.5,53.1,29.86,North,359,0.0,2.0,95,0.00,,---,0.00,VWS V14.01,2013-05-07 12:26:00,
2013-05-07 08:31:00,54.7,53.3,29.86,North,359,0.0,0.0,95,0.00,,---,0.00,VWS V14.01,2013-05-07 12:31:00,
2013-05-07 08:36:00,54.8,53.4,29.86,North,353,0.0,5.0,95,0.00,,---,0.00,VWS V14.01,2013-05-07 12:36:00,
2013-05-07 08:41:00,55.0,53.6,29.86,North,353,0.0,5.0,95,0.00,,---,0.00,VWS V14.01,2013-05-07 12:41:00,
2013-05-07 08:46:00,55.3,53.9,29.86,North,353,0.0,1.0,95,0.00,,---,0.00,VWS V14.01,2013-05-07 12:46:00,
2013-05-07 08:51:00,55.3,53.9,29.86,North,350,0.0,4.0,95,0.00,,---,0.00,VWS V14.01,2013-05-07 12:51:00,
2013-05-07 08:56:00,55.4,54.0,29.86,North,350,0.0,4.0,95,0.00,,---,0.00,VWS V14.01,2013-05-07 12:56:00,
2013-05-07 09:01:00,55.6,54.2,29.87,ENE,68,1.0,1.0,95,0.00,,---,0.00,VWS V14.01,2013-05-07 13:01:00,
2013-05-07 09:06:00,55.7,54.3,29.87,NW,306,2.0,5.0,95,0.00,,---,0.00,VWS V14.01,2013-05-07 13:06:00,
2013-05-07 09:11:00,55.7,54.3,29.87,NW,306,0.0,5.0,95,0.00,,---,0.00,VWS V14.01,2013-05-07 13:11:00,
2013-05-07 09:16:00,55.7,54.3,29.87,NW,306,0.0,1.0,95,0.00,,---,0.00,VWS V14.01,2013-05-07 13:16:00,
2013-05-07 09:21:00,55.9,54.5,29.88,NNW,343,1.0,4.0,95,0.00,,---,0.00,VWS V14.01,2013-05-07 13:21:00,
2013-05-07 09:26:00,56.0,54.6,29.88,NNW,343,0.0,4.0,95,0.00,,---,0.00,VWS V14.01,2013-05-07 13:26:00,
2013-05-07 09:31:00,56.2,54.8,29.88,NNW,343,0.0,0.0,95,0.00,,---,0.00,VWS V14.01,2013-05-07 13:31:00,
2013-05-07 09:36:00,56.5,55.1,29.88,NNW,343,0.0,0.0,95,0.00,,---,0.00,VWS V14.01,2013-05-07 13:36:00,
2013-05-07 09:41:00,56.6,55.2,29.88,NNW,332,2.0,2.0,95,0.00,,---,0.00,VWS V14.01,2013-05-07 13:41:00,
2013-05-07 09:46:00,56.9,55.5,29.88,NNW,331,0.0,0.0,95,0.00,,---,0.00,VWS V14.01,2013-05-07 13:46:00,
2013-05-07 09:51:00,57.0,55.6,29.88,West,279,2.0,3.0,95,0.00,,---,0.00,VWS V14.01,2013-05-07 13:51:00,
2013-05-07 09:56:00,57.0,55.3,29.89,West,279,0.0,3.0,94,0.00,,---,0.00,VWS V14.01,2013-05-07 13:56:00,
2013-05-07 10:01:00,57.2,55.8,29.89,SSE,157,0.0,0.0,95,0.00,,---,0.00,VWS V14.01,2013-05-07 14:01:00,
2013-05-07 10:06:00,57.3,55.9,29.89,SSW,206,0.0,3.0,95,0.00,,---,0.00,VWS V14.01,2013-05-07 14:06:00,
2013-05-07 10:11:00,57.5,55.8,29.89,SSW,206,0.0,3.0,94,0.00,,---,0.00,VWS V14.01,2013-05-07 14:11:00,
2013-05-07 10:16:00,57.6,55.9,29.88,West,261,0.0,0.0,94,0.00,,---,0.00,VWS V14.01,2013-05-07 14:16:00,
2013-05-07 10:21:00,57.6,55.9,29.89,West,261,0.0,1.0,94,0.00,,---,0.00,VWS V14.01,2013-05-07 14:21:00,
2013-05-07 10:26:00,58.0,56.3,29.89,West,261,0.0,1.0,94,0.00,,---,0.00,VWS V14.01,2013-05-07 14:26:00,
2013-05-07 10:31:00,58.1,56.1,29.89,WSW,237,0.0,0.0,93,0.00,,---,0.00,VWS V14.01,2013-05-07 14:31:00,
2013-05-07 10:36:00,58.4,56.4,29.89,West,262,0.0,2.0,93,0.00,,---,0.00,VWS V14.01,2013-05-07 14:36:00,
2013-05-07 10:41:00,58.7,56.7,29.89,SSE,151,0.0,2.0,93,0.00,,---,0.00,VWS V14.01,2013-05-07 14:41:00,
2013-05-07 10:46:00,59.0,56.7,29.89,NW,322,0.0,0.0,92,0.00,,---,0.00,VWS V14.01,2013-05-07 14:46:00,
2013-05-07 10:51:00,59.0,56.7,29.89,SW,232,0.0,3.0,92,0.00,,---,0.00,VWS V14.01,2013-05-07 14:51:00,
2013-05-07 10:56:00,59.2,56.6,29.89,South,183,2.0,3.0,91,0.00,,---,0.00,VWS V14.01,2013-05-07 14:56:00,
2013-05-07 11:01:00,59.6,56.7,29.89,SSW,197,0.0,3.0,90,0.00,,---,0.00,VWS V14.01,2013-05-07 15:01:00,
2013-05-07 11:06:00,60.1,56.8,29.88,WNW,298,2.0,4.0,89,0.00,,---,0.00,VWS V14.01,2013-05-07 15:06:00,
2013-05-07 11:11:00,60.5,56.9,29.88,SW,230,0.0,4.0,88,0.00,,---,0.00,VWS V14.01,2013-05-07 15:11:00,
2013-05-07 11:16:00,60.9,56.7,29.88,SSE,165,0.0,0.0,86,0.00,,---,0.00,VWS V14.01,2013-05-07 15:16:00,
2013-05-07 11:21:00,61.3,56.8,29.88,South,181,1.0,1.0,85,0.00,,---,0.00,VWS V14.01,2013-05-07 15:21:00,
2013-05-07 11:26:00,61.5,56.3,29.88,SE,137,0.0,4.0,83,0.00,,---,0.00,VWS V14.01,2013-05-07 15:26:00,
2013-05-07 11:31:00,61.8,55.9,29.88,South,174,0.0,0.0,81,0.00,,---,0.00,VWS V14.01,2013-05-07 15:31:00,
2013-05-07 11:36:00,62.4,56.2,29.88,WNW,300,1.0,3.0,80,0.00,,---,0.00,VWS V14.01,2013-05-07 15:36:00,
2013-05-07 11:41:00,62.7,55.8,29.88,WSW,248,0.0,3.0,78,0.00,,---,0.00,VWS V14.01,2013-05-07 15:41:00,
2013-05-07 11:46:00,62.9,55.2,29.88,South,172,0.0,0.0,76,0.00,,---,0.00,VWS V14.01,2013-05-07 15:46:00,
2013-05-07 11:51:00,63.5,55.4,29.88,SW,226,0.0,3.0,75,0.00,,---,0.00,VWS V14.01,2013-05-07 15:51:00,
2013-05-07 11:56:00,63.9,55.1,29.88,South,169,0.0,4.0,73,0.00,,---,0.00,VWS V14.01,2013-05-07 15:56:00,
2013-05-07 12:01:00,63.9,53.9,29.88,SSW,213,0.0,0.0,70,0.00,,---,0.00,VWS V14.01,2013-05-07 16:01:00,
2013-05-07 12:06:00,64.0,54.0,29.87,SSE,165,0.0,6.0,70,0.00,,---,0.00,VWS V14.01,2013-05-07 16:06:00,
2013-05-07 12:11:00,64.2,54.6,29.87,SW,220,2.0,6.0,71,0.00,,---,0.00,VWS V14.01,2013-05-07 16:11:00,
2013-05-07 12:16:00,64.0,53.6,29.87,West,266,0.0,0.0,69,0.00,,---,0.00,VWS V14.01,2013-05-07 16:16:00,
2013-05-07 12:21:00,64.2,53.4,29.86,NW,305,0.0,3.0,68,0.00,,---,0.00,VWS V14.01,2013-05-07 16:21:00,
2013-05-07 12:26:00,64.2,52.2,29.86,West,270,0.0,6.0,65,0.00,,---,0.00,VWS V14.01,2013-05-07 16:26:00,
2013-05-07 12:31:00,64.7,53.1,29.86,NW,321,3.0,3.0,66,0.00,,---,0.00,VWS V14.01,2013-05-07 16:31:00,
2013-05-07 12:36:00,65.0,51.7,29.86,SW,222,2.0,7.0,62,0.00,,---,0.00,VWS V14.01,2013-05-07 16:36:00,
2013-05-07 12:41:00,65.3,51.5,29.86,NW,309,0.0,7.0,61,0.00,,---,0.00,VWS V14.01,2013-05-07 16:41:00,
2013-05-07 12:46:00,65.8,53.3,29.85,East,95,1.0,1.0,64,0.00,,---,0.00,VWS V14.01,2013-05-07 16:46:00,
2013-05-07 12:51:00,66.1,51.8,29.85,SE,145,0.0,4.0,60,0.00,,---,0.00,VWS V14.01,2013-05-07 16:51:00,
2013-05-07 12:56:00,66.8,52.0,29.85,SSW,203,0.0,4.0,59,0.00,,---,0.00,VWS V14.01,2013-05-07 16:56:00,
2013-05-07 13:01:00,66.8,51.6,29.85,SSE,153,1.0,1.0,58,0.00,,---,0.00,VWS V14.01,2013-05-07 17:01:00,
2013-05-07 13:06:00,66.6,49.5,29.85,SSW,212,2.0,5.0,54,0.00,,---,0.00,VWS V14.01,2013-05-07 17:06:00,
2013-05-07 13:11:00,66.6,47.9,29.85,West,262,1.0,5.0,51,0.00,,---,0.00,VWS V14.01,2013-05-07 17:11:00,
2013-05-07 13:16:00,67.1,51.4,29.85,SSW,197,0.0,0.0,57,0.00,,---,0.00,VWS V14.01,2013-05-07 17:16:00,
2013-05-07 13:21:00,67.6,50.4,29.84,West,272,0.0,4.0,54,0.00,,---,0.00,VWS V14.01,2013-05-07 17:21:00,
2013-05-07 13:26:00,68.1,50.8,29.84,WNW,293,0.0,4.0,54,0.00,,---,0.00,VWS V14.01,2013-05-07 17:26:00,
2013-05-07 13:31:00,68.3,50.0,29.84,WNW,289,2.0,2.0,52,0.00,,---,0.00,VWS V14.01,2013-05-07 17:31:00,
2013-05-07 13:36:00,68.3,49.5,29.84,ENE,64,0.0,4.0,51,0.00,,---,0.00,VWS V14.01,2013-05-07 17:36:00,
2013-05-07 13:41:00,68.8,53.0,29.84,NW,323,1.0,5.0,57,0.00,,---,0.00,VWS V14.01,2013-05-07 17:41:00,
2013-05-07 13:46:00,69.1,50.8,29.84,WSW,245,0.0,5.0,52,0.00,,---,0.00,VWS V14.01,2013-05-07 17:46:00,
2013-05-07 13:51:00,68.8,51.5,29.84,SSE,168,0.0,4.0,54,0.00,,---,0.00,VWS V14.01,2013-05-07 17:51:00,
2013-05-07 13:56:00,68.4,51.6,29.84,SSE,147,0.0,4.0,55,0.00,,---,0.00,VWS V14.01,2013-05-07 17:56:00,
2013-05-07 14:01:00,68.4,51.6,29.84,South,186,3.0,4.0,55,0.00,,---,0.00,VWS V14.01,2013-05-07 18:01:00,
2013-05-07 14:06:00,68.8,51.0,29.83,SSW,211,0.0,5.0,53,0.00,,---,0.00,VWS V14.01,2013-05-07 18:06:00,
2013-05-07 14:11:00,69.3,50.4,29.84,South,181,3.0,5.0,51,0.00,,---,0.00,VWS V14.01,2013-05-07 18:11:00,
2013-05-07 14:16:00,69.6,49.1,29.83,NW,316,4.0,5.0,48,0.00,,---,0.00,VWS V14.01,2013-05-07 18:16:00,
2013-05-07 14:21:00,69.4,50.5,29.83,West,271,0.0,7.0,51,0.00,,---,0.00,VWS V14.01,2013-05-07 18:21:00,
2013-05-07 14:26:00,69.1,49.7,29.83,SW,235,2.0,7.0,50,0.00,,---,0.00,VWS V14.01,2013-05-07 18:26:00,
2013-05-07 14:31:00,68.8,48.3,29.83,West,259,0.0,7.0,48,0.00,,---,0.00,VWS V14.01,2013-05-07 18:31:00,
2013-05-07 14:36:00,68.4,49.1,29.83,SE,142,1.0,3.0,50,0.00,,---,0.00,VWS V14.01,2013-05-07 18:36:00,
2013-05-07 14:41:00,68.4,50.1,29.83,NNW,341,0.0,6.0,52,0.00,,---,0.00,VWS V14.01,2013-05-07 18:41:00,
2013-05-07 14:46:00,68.4,50.1,29.83,SE,144,3.0,6.0,52,0.00,,---,0.00,VWS V14.01,2013-05-07 18:46:00,
2013-05-07 14:51:00,68.4,48.5,29.83,West,263,0.0,6.0,49,0.00,,---,0.00,VWS V14.01,2013-05-07 18:51:00,
2013-05-07 14:56:00,68.4,48.0,29.83,South,173,0.0,6.0,48,0.00,,---,0.00,VWS V14.01,2013-05-07 18:56:00,
2013-05-07 15:01:00,68.3,49.0,29.82,SW,214,0.0,6.0,50,0.00,,---,0.00,VWS V14.01,2013-05-07 19:01:00,
2013-05-07 15:06:00,68.3,48.4,29.82,SW,214,0.0,1.0,49,0.00,,---,0.00,VWS V14.01,2013-05-07 19:06:00,
2013-05-07 15:11:00,68.1,49.3,29.82,SW,215,0.0,1.0,51,0.00,,---,0.00,VWS V14.01,2013-05-07 19:11:00,
2013-05-07 15:16:00,68.1,50.8,29.82,South,173,0.0,2.0,54,0.00,,---,0.00,VWS V14.01,2013-05-07 19:16:00,
2013-05-07 15:21:00,67.9,51.2,29.82,SE,142,0.0,3.0,55,0.00,,---,0.00,VWS V14.01,2013-05-07 19:21:00,
2013-05-07 15:26:00,67.6,49.4,29.82,SSE,162,1.0,3.0,52,0.00,,---,0.00,VWS V14.01,2013-05-07 19:26:00,
2013-05-07 15:31:00,67.4,47.0,29.82,SSE,168,0.0,4.0,48,0.00,,---,0.00,VWS V14.01,2013-05-07 19:31:00,
2013-05-07 15:36:00,67.4,48.7,29.82,SSE,154,0.0,3.0,51,0.00,,---,0.00,VWS V14.01,2013-05-07 19:36:00,
2013-05-07 15:41:00,67.4,51.2,29.82,SSE,155,2.0,3.0,56,0.00,,---,0.00,VWS V14.01,2013-05-07 19:41:00,
2013-05-07 15:46:00,67.3,49.6,29.82,SW,229,0.0,3.0,53,0.00,,---,0.00,VWS V14.01,2013-05-07 19:46:00,
2013-05-07 15:51:00,67.4,51.2,29.82,SW,229,0.0,1.0,56,0.00,,---,0.00,VWS V14.01,2013-05-07 19:51:00,
2013-05-07 15:56:00,67.3,49.1,29.82,SSE,149,0.0,3.0,52,0.00,,---,0.00,VWS V14.01,2013-05-07 19:56:00,
2013-05-07 16:01:00,67.4,51.2,29.82,East,101,1.0,3.0,56,0.00,,---,0.00,VWS V14.01,2013-05-07 20:01:00,
2013-05-07 16:06:00,67.4,48.1,29.82,SSE,158,1.0,5.0,50,0.00,,---,0.00,VWS V14.01,2013-05-07 20:06:00,
2013-05-07 16:11:00,67.9,49.7,29.82,South,183,0.0,5.0,52,0.00,,---,0.00,VWS V14.01,2013-05-07 20:11:00,
2013-05-07 16:16:00,68.4,48.5,29.82,SSW,207,1.0,5.0,49,0.00,,---,0.00,VWS V14.01,2013-05-07 20:16:00,
2013-05-07 16:21:00,69.1,50.2,29.82,West,269,0.0,5.0,51,0.00,,---,0.00,VWS V14.01,2013-05-07 20:21:00,
2013-05-07 16:26:00,69.3,47.7,29.83,WSW,243,0.0,6.0,46,0.00,,---,0.00,VWS V14.01,2013-05-07 20:26:00,
2013-05-07 16:31:00,69.6,47.3,29.83,ESE,102,3.0,6.0,45,0.00,,---,0.00,VWS V14.01,2013-05-07 20:31:00,
2013-05-07 16:36:00,69.8,47.5,29.83,NW,313,4.0,7.0,45,0.00,,---,0.00,VWS V14.01,2013-05-07 20:36:00,
2013-05-07 16:41:00,69.9,47.0,29.83,NW,311,2.0,8.0,44,0.00,,---,0.00,VWS V14.01,2013-05-07 20:41:00,
2013-05-07 16:46:00,69.8,48.1,29.84,NNE,18,6.0,12.0,46,0.00,,---,0.00,VWS V14.01,2013-05-07 20:46:00,
2013-05-07 16:51:00,67.8,48.0,29.85,WNW,286,0.0,22.0,49,0.00,,---,0.00,VWS V14.01,2013-05-07 20:51:00,
2013-05-07 16:56:00,65.5,48.4,29.86,North,355,6.0,22.0,54,0.00,,---,0.00,VWS V14.01,2013-05-07 20:56:00,
2013-05-07 17:01:00,63.9,48.4,29.86,NNE,29,15.0,22.0,57,0.00,,---,0.00,VWS V14.01,2013-05-07 21:01:00,
2013-05-07 17:06:00,62.4,48.3,29.86,North,359,6.0,14.0,60,0.00,,---,0.00,VWS V14.01,2013-05-07 21:06:00,
2013-05-07 17:11:00,61.3,48.2,29.86,North,359,5.0,16.0,62,0.00,,---,0.00,VWS V14.01,2013-05-07 21:11:00,
2013-05-07 17:16:00,60.7,48.5,29.87,NNE,17,7.0,16.0,64,0.00,,---,0.00,VWS V14.01,2013-05-07 21:16:00,
2013-05-07 17:21:00,59.8,49.2,29.87,North,9,5.0,19.0,68,0.00,,---,0.00,VWS V14.01,2013-05-07 21:21:00,
2013-05-07 17:26:00,59.0,49.6,29.88,NW,310,13.0,19.0,71,0.00,,---,0.00,VWS V14.01,2013-05-07 21:26:00,
2013-05-07 17:31:00,58.4,49.8,29.88,NNW,334,10.0,19.0,73,0.00,,---,0.00,VWS V14.01,2013-05-07 21:31:00,
2013-05-07 17:36:00,57.8,49.9,29.88,NNE,12,1.0,15.0,75,0.00,,---,0.00,VWS V14.01,2013-05-07 21:36:00,
2013-05-07 17:41:00,57.5,50.0,29.88,North,1,7.0,15.0,76,0.01,,---,0.01,VWS V14.01,2013-05-07 21:41:00,
2013-05-07 17:46:00,57.0,50.6,29.88,NE,47,6.0,15.0,79,0.01,,---,0.01,VWS V14.01,2013-05-07 21:46:00,
2013-05-07 17:51:00,56.7,50.6,29.88,NW,324,2.0,17.0,80,0.01,,---,0.01,VWS V14.01,2013-05-07 21:51:00,
2013-05-07 17:56:00,56.5,50.8,29.88,North,3,2.0,17.0,81,0.01,,---,0.01,VWS V14.01,2013-05-07 21:56:00,
2013-05-07 18:01:00,56.3,50.9,29.88,NW,315,9.0,17.0,82,0.01,,---,0.01,VWS V14.01,2013-05-07 22:01:00,
2013-05-07 18:06:00,56.2,51.1,29.88,NE,41,3.0,11.0,83,0.01,,---,0.01,VWS V14.01,2013-05-07 22:06:00,
2013-05-07 18:11:00,56.0,50.9,29.88,NNW,341,0.0,11.0,83,0.01,,---,0.01,VWS V14.01,2013-05-07 22:11:00,
2013-05-07 18:16:00,56.0,50.9,29.88,NNW,330,0.0,11.0,83,0.01,,---,0.01,VWS V14.01,2013-05-07 22:16:00,
2013-05-07 18:21:00,56.0,51.2,29.88,North,358,5.0,9.0,84,0.01,,---,0.01,VWS V14.01,2013-05-07 22:21:00,
2013-05-07 18:26:00,55.9,51.1,29.88,NNE,18,3.0,9.0,84,0.01,,---,0.01,VWS V14.01,2013-05-07 22:26:00,
2013-05-07 18:31:00,56.0,51.2,29.88,North,349,3.0,9.0,84,0.01,,---,0.01,VWS V14.01,2013-05-07 22:31:00,
2013-05-07 18:36:00,55.9,51.1,29.88,NNW,337,0.0,7.0,84,0.01,,---,0.01,VWS V14.01,2013-05-07 22:36:00,
2013-05-07 18:41:00,55.9,50.8,29.88,North,9,3.0,7.0,83,0.01,,---,0.01,VWS V14.01,2013-05-07 22:41:00,
2013-05-07 18:46:00,55.9,50.8,29.88,North,355,0.0,7.0,83,0.01,,---,0.01,VWS V14.01,2013-05-07 22:46:00,
2013-05-07 18:51:00,56.0,50.9,29.88,North,4,0.0,5.0,83,0.00,,---,0.01,VWS V14.01,2013-05-07 22:51:00,
2013-05-07 18:56:00,56.0,50.9,29.88,North,2,2.0,6.0,83,0.00,,---,0.01,VWS V14.01,2013-05-07 22:56:00,
2013-05-07 19:01:00,56.0,50.9,29.88,WNW,296,1.0,6.0,83,0.00,,---,0.01,VWS V14.01,2013-05-07 23:01:00,
2013-05-07 19:06:00,56.2,51.1,29.88,NNW,348,2.0,4.0,83,0.00,,---,0.01,VWS V14.01,2013-05-07 23:06:00,
2013-05-07 19:11:00,56.2,51.1,29.88,NNW,348,0.0,4.0,83,0.00,,---,0.01,VWS V14.01,2013-05-07 23:11:00,
2013-05-07 19:16:00,56.3,51.2,29.88,NNW,347,0.0,4.0,83,0.00,,---,0.01,VWS V14.01,2013-05-07 23:16:00,
2013-05-07 19:21:00,56.3,51.2,29.88,NNW,348,0.0,4.0,83,0.00,,---,0.01,VWS V14.01,2013-05-07 23:21:00,
2013-05-07 19:26:00,56.3,51.2,29.88,ENE,75,0.0,4.0,83,0.00,,---,0.01,VWS V14.01,2013-05-07 23:26:00,
2013-05-07 19:31:00,56.2,50.8,29.88,ENE,71,0.0,4.0,82,0.00,,---,0.01,VWS V14.01,2013-05-07 23:31:00,
2013-05-07 19:36:00,56.2,50.8,29.88,ENE,71,0.0,1.0,82,0.00,,---,0.01,VWS V14.01,2013-05-07 23:36:00,
2013-05-07 19:41:00,56.3,51.2,29.89,ENE,71,1.0,1.0,83,0.00,,---,0.01,VWS V14.01,2013-05-07 23:41:00,
2013-05-07 19:46:00,56.3,51.2,29.89,ENE,71,0.0,1.0,83,0.00,,---,0.01,VWS V14.01,2013-05-07 23:46:00,
2013-05-07 19:51:00,56.3,51.2,29.89,ENE,71,0.0,1.0,83,0.00,,---,0.01,VWS V14.01,2013-05-07 23:51:00,
2013-05-07 19:56:00,56.2,51.1,29.89,ENE,71,0.0,1.0,83,0.00,,---,0.01,VWS V14.01,2013-05-07 23:56:00,
2013-05-07 20:01:00,56.2,51.1,29.89,ENE,71,0.0,1.0,83,0.00,,---,0.01,VWS V14.01,2013-05-08 00:01:00,
2013-05-07 20:06:00,56.2,51.1,29.90,ENE,71,0.0,0.0,83,0.00,,---,0.01,VWS V14.01,2013-05-08 00:06:00,
2013-05-07 20:11:00,56.0,51.2,29.90,ENE,71,0.0,0.0,84,0.00,,---,0.01,VWS V14.01,2013-05-08 00:11:00,
2013-05-07 20:16:00,56.0,51.2,29.90,ENE,71,0.0,0.0,84,0.00,,---,0.01,VWS V14.01,2013-05-08 00:16:00,
2013-05-07 20:21:00,55.9,51.5,29.90,ENE,71,0.0,1.0,85,0.00,,---,0.01,VWS V14.01,2013-05-08 00:21:00,
2013-05-07 20:26:00,55.7,51.3,29.90,ENE,71,0.0,1.0,85,0.00,,---,0.01,VWS V14.01,2013-05-08 00:26:00,
2013-05-07 20:31:00,55.7,51.3,29.90,ENE,71,0.0,1.0,85,0.00,,---,0.01,VWS V14.01,2013-05-08 00:31:00,
2013-05-07 20:36:00,55.6,51.5,29.90,ENE,71,0.0,0.0,86,0.00,,---,0.01,VWS V14.01,2013-05-08 00:36:00,
2013-05-07 20:41:00,55.4,51.3,29.90,ENE,71,0.0,0.0,86,0.00,,---,0.01,VWS V14.01,2013-05-08 00:41:00,
2013-05-07 20:46:00,55.3,51.2,29.91,ENE,71,0.0,1.0,86,0.00,,---,0.01,VWS V14.01,2013-05-08 00:46:00,
2013-05-07 20:51:00,55.1,51.0,29.91,ENE,71,0.0,1.0,86,0.00,,---,0.01,VWS V14.01,2013-05-08 00:51:00,
2013-05-07 20:56:00,55.1,51.0,29.91,ENE,71,0.0,1.0,86,0.00,,---,0.01,VWS V14.01,2013-05-08 00:56:00,
2013-05-07 21:01:00,55.0,50.9,29.90,ENE,71,0.0,1.0,86,0.00,,---,0.01,VWS V14.01,2013-05-08 01:01:00,
2013-05-07 21:06:00,54.8,50.7,29.90,ENE,71,0.0,0.0,86,0.00,,---,0.01,VWS V14.01,2013-05-08 01:06:00,
2013-05-07 21:11:00,54.8,51.0,29.90,ENE,71,0.0,0.0,87,0.00,,---,0.01,VWS V14.01,2013-05-08 01:11:00,
2013-05-07 21:16:00,54.7,50.9,29.90,ENE,71,0.0,0.0,87,0.00,,---,0.01,VWS V14.01,2013-05-08 01:16:00,
2013-05-07 21:21:00,54.7,50.9,29.90,ENE,71,0.0,0.0,87,0.00,,---,0.01,VWS V14.01,2013-05-08 01:21:00,
2013-05-07 21:26:00,54.5,50.7,29.91,ENE,71,0.0,0.0,87,0.00,,---,0.01,VWS V14.01,2013-05-08 01:26:00,
2013-05-07 21:31:00,54.5,51.0,29.91,ENE,71,0.0,0.0,88,0.00,,---,0.01,VWS V14.01,2013-05-08 01:31:00,
2013-05-07 21:36:00,54.5,51.0,29.91,ENE,71,0.0,0.0,88,0.00,,---,0.01,VWS V14.01,2013-05-08 01:36:00,
2013-05-07 21:41:00,54.4,50.9,29.91,ENE,71,0.0,0.0,88,0.00,,---,0.01,VWS V14.01,2013-05-08 01:41:00,
2013-05-07 21:46:00,54.4,50.9,29.91,ENE,71,0.0,0.0,88,0.00,,---,0.01,VWS V14.01,2013-05-08 01:46:00,
2013-05-07 21:51:00,54.4,50.9,29.91,ENE,71,0.0,0.0,88,0.00,,---,0.01,VWS V14.01,2013-05-08 01:51:00,
2013-05-07 21:56:00,54.2,50.7,29.92,ENE,71,0.0,0.0,88,0.00,,---,0.01,VWS V14.01,2013-05-08 01:56:00,
2013-05-07 22:01:00,54.2,51.0,29.92,ENE,71,0.0,0.0,89,0.00,,---,0.01,VWS V14.01,2013-05-08 02:01:00,
2013-05-07 22:06:00,54.2,51.0,29.91,ENE,71,0.0,0.0,89,0.00,,---,0.01,VWS V14.01,2013-05-08 02:06:00,
2013-05-07 22:11:00,54.2,51.0,29.91,ENE,71,0.0,0.0,89,0.00,,---,0.01,VWS V14.01,2013-05-08 02:11:00,
2013-05-07 22:15:00,54.1,50.9,29.92,ENE,71,0.0,0.0,89,0.00,,---,0.01,VWS V14.01,2013-05-08 02:15:00,
2013-05-07 22:20:00,54.1,50.9,29.92,ENE,71,0.0,0.0,89,0.00,,---,0.01,VWS V14.01,2013-05-08 02:20:00,
2013-05-07 22:25:00,54.1,50.9,29.92,ENE,71,0.0,0.0,89,0.00,,---,0.01,VWS V14.01,2013-05-08 02:25:00,
2013-05-07 22:30:00,54.1,50.9,29.92,ENE,71,0.0,0.0,89,0.00,,---,0.01,VWS V14.01,2013-05-08 02:30:00,
2013-05-07 22:35:00,54.1,50.9,29.92,ENE,71,0.0,0.0,89,0.00,,---,0.01,VWS V14.01,2013-05-08 02:35:00,
2013-05-07 22:40:00,54.1,50.9,29.93,ENE,71,0.0,0.0,89,0.00,,---,0.01,VWS V14.01,2013-05-08 02:40:00,
2013-05-07 22:45:00,54.1,50.9,29.93,ENE,71,0.0,0.0,89,0.00,,---,0.01,VWS V14.01,2013-05-08 02:45:00,
2013-05-07 22:50:00,54.1,50.9,29.92,ENE,71,0.0,0.0,89,0.00,,---,0.01,VWS V14.01,2013-05-08 02:50:00,
2013-05-07 22:55:00,54.1,50.9,29.93,ENE,71,0.0,0.0,89,0.00,,---,0.01,VWS V14.01,2013-05-08 02:55:00,
2013-05-07 23:00:00,53.9,51.0,29.93,ENE,71,0.0,0.0,90,0.00,,---,0.01,VWS V14.01,2013-05-08 03:00:00,
2013-05-07 23:05:00,53.9,51.0,29.92,ENE,71,0.0,0.0,90,0.00,,---,0.01,VWS V14.01,2013-05-08 03:05:00,
2013-05-07 23:10:00,53.9,51.0,29.92,ENE,71,0.0,0.0,90,0.00,,---,0.01,VWS V14.01,2013-05-08 03:10:00,
2013-05-07 23:15:00,53.9,51.0,29.92,ENE,71,0.0,0.0,90,0.00,,---,0.01,VWS V14.01,2013-05-08 03:15:00,
2013-05-07 23:20:00,53.9,51.0,29.92,ENE,71,0.0,0.0,90,0.00,,---,0.01,VWS V14.01,2013-05-08 03:20:00,
2013-05-07 23:25:00,53.9,51.0,29.92,ENE,71,0.0,0.0,90,0.00,,---,0.01,VWS V14.01,2013-05-08 03:25:00,
2013-05-07 23:30:00,53.9,51.0,29.92,ENE,71,0.0,0.0,90,0.00,,---,0.01,VWS V14.01,2013-05-08 03:30:00,
2013-05-07 23:35:00,53.9,51.0,29.92,ENE,71,0.0,0.0,90,0.00,,---,0.01,VWS V14.01,2013-05-08 03:35:00,
2013-05-07 23:40:00,53.8,50.9,29.92,ENE,71,0.0,0.0,90,0.00,,---,0.01,VWS V14.01,2013-05-08 03:40:00,
2013-05-07 23:45:00,53.8,50.9,29.91,ENE,71,0.0,0.0,90,0.00,,---,0.01,VWS V14.01,2013-05-08 03:45:00,
2013-05-07 23:50:00,53.8,50.9,29.92,ENE,71,0.0,0.0,90,0.00,,---,0.01,VWS V14.01,2013-05-08 03:50:00,
2013-05-07 23:55:00,53.8,50.9,29.92,ENE,71,0.0,0.0,90,0.00,,---,0.01,VWS V14.01,2013-05-08 03:55:00,